Weather in Kolenkovtsy

Ukraine / Chernovtci District     48°24′46″N   26°07′45″E
temp.,
°C
wind,
m/s
gust,
m/s
humid.,
%
clouds,
%
prec.,
mm/h
press.,
hPa
HPBL,
m
19 september, sun
sun1900:00+11wsw229183 0.0 101018
03:00+12sw228647 0.0 101043
06:00+10s118999 0.0 100810
09:00+9nnw61184100 0.4 1010593
12:00+7nw51290100 4.1 10111020
15:00+7wnw71287100 5.6 1012985
18:00+8nw71383100 0.1 10121060
21:00+8nw61383100 0.1 1012998
20 september, mon
mon2000:00+8nw61385100 0.1 10121082
03:00+7nw71484100 0.1 1013961
06:00+7wnw61286100 0.0 1013837
09:00+7wnw61184100 0.0 1014800
12:00+8wnw61080100 0.0 1015829
15:00+10nw797094 0.0 1015719
18:00+9nw6872100 0.0 1016795
21:00+8nw5981100 0.0 1018771
21 september, tue
tue2100:00+7nw598297 0.0 1019775
03:00+7nw51079100 0.0 1020873
06:00+7nw61270100 0.0 10201010
09:00+7nw71171100 0.0 10211160
12:00+8nw71063100 0.1 10221385
15:00+9nw71163100 0.1 10221490
18:00+8nw61269100 0.0 10221207
21:00+8nw51073100 0.0 10231001
22 september, wed
wed2200:00+6wnw4975100 0.0 1023577
03:00+6wnw4117981 0.0 1023423
06:00+6wnw3117192 0.0 1021363
09:00+8wnw6968100 0.0 1021945
12:00+11nw6863100 0.2 10201263
15:00+11nw5757100 0.6 10191444
18:00+10nw4766100 0.4 1018995
21:00+8nw3672100 0.4 1019202
23 september, thu
thu2300:00+6nw2783100 0.0 1019484
03:00+6nw4878100 0.1 1018837
06:00+6wnw488082 0.1 1017895
09:00+6nw498293 0.4 1017910
12:00+8wnw5775100 0.4 10171122
15:00+9nnw577196 0.8 10171099
18:00+9wnw477193 0.1 1016820
21:00+8wnw3883100 0.2 1017344